Location: Vancouver
(49.2500°N, 123.1330°W)
Time: 23:34:10
(UTC-07:00)

Cosmos 2333 Rocket - Visible Passes

Search period start: 01 April 2015 00:00
Search period end: 11 April 2015 00:00
Orbit: 838 x 864 km, 70.9° (Epoch: 31 March)

Date Brightness Start Highest point End Pass type
(mag) Time Alt. Az. Time Alt. Az. Time Alt. Az.
01 Apr 3.1 21:04:46 10° NW 21:10:19 48° WSW 21:15:49 10° S visible
02 Apr 3.2 20:52:31 10° NW 20:58:05 48° WSW 21:03:34 10° S visible
03 Apr 3.2 20:40:16 10° NW 20:45:49 48° WSW 20:51:18 10° S visible
04 Apr 3.3 20:28:02 10° NW 20:33:34 48° WSW 20:39:03 10° S visible
05 Apr 3.3 20:15:46 10° NW 20:21:19 48° WSW 20:26:48 10° S visible
